Regional Weather Roundup
Issued by NWS

Home | Current Version | Previous Version | Graphics & Text | Print | Product List | Glossary Off
Versions: 1 2 3 4 5 6 7 8 9 10 11 12 13 14 15 16 17 18 19 20 21 22 23 24 25 26 27 28 29 30 31 32 33 34 35 36 37 38 39 40 41 42 43 44 45 46 47 48 49 50

000
ASUS43 KFSD 280302
RWRSD

WEATHER ROUNDUP FOR SOUTH DAKOTA
NATIONAL WEATHER SERVICE SIOUX FALLS SD
1000 PM CDT WED APR 27 2016

NOTE: "FAIR" INDICATES FEW OR NO CLOUDS BELOW 12,000 FEET WITH NO
SIGNIFICANT WEATHER AND/OR OBSTRUCTIONS TO VISIBILITY.


SDZ001>005-009-010-012>017-280400-
NORTHWEST AND NORTH CENTRAL SOUTH DAKOTA

CITY           SKY/WX    TMP DP  RH WIND       PRES   REMARKS
BUFFALO          N/A     33  32  96 N13       29.91R WCI  24
FAITH            N/A     32  30  92 N15       29.92R WCI  22
MOBRIDGE       LGT RAIN  38  35  89 NE10      29.91R
$$

SDZ012>016-024>037-041>051-057-063-072>074-280400-
SOUTHWEST AND SOUTH CENTRAL SOUTH DAKOTA

CITY           SKY/WX    TMP DP  RH WIND       PRES   REMARKS
RAPID CTY ARPT LGT SNOW  32  31  96 N18       29.91R FOG     WCI  20
PIERRE         LGT RAIN  36  35  96 NE15      29.86R
CUSTER         LGT SNOW  28  23  81 N8        29.83R WCI  20
ELLSWORTH AFB  LGT SNOW  32  32 100 N18G26    29.91  FOG     WCI  20
PHILIP         LGT SNOW  33  32  96 N12       29.88R FOG     WCI  24
PINE RIDGE     LGT SNOW  32  29  88 N12       29.87R FOG     WCI  23
WINNER         CLOUDY    40  36  86 N9        29.80R
$$

SDZ004>011-016>023-039-040-280400-
NORTHEAST SOUTH DAKOTA

CITY           SKY/WX    TMP DP  RH WIND       PRES   REMARKS
ABERDEEN       LGT RAIN  39  36  89 NE13      29.92R
WATERTOWN      LGT RAIN  40  36  86 E22G33    29.82R
BROOKINGS      CLOUDY    40  38  93 E14G25    29.77R
SISSETON         N/A     40  33  76 E15G25    29.92R
$$

SDZ017-020-022-023-036>040-048>070-280400-
SOUTHEAST SOUTH DAKOTA

CITY           SKY/WX    TMP DP  RH WIND       PRES   REMARKS
SIOUX FALLS    LGT RAIN  42  39  89 E17       29.75R FOG
HURON          LGT RAIN  41  39  93 NE9       29.82R
MITCHELL       LGT RAIN  42  40  92 NE9       29.79R
YANKTON        CLOUDY    43  39  87 NE20      29.70R
$$

ABBREVIATIONS USED IN REMARKS
   TC - TEMPERATURE IN CELSIUS
  WCI - WIND CHILL INDEX
   HX - HEAT INDEX
  VSB - VISIBILITY





USA.gov is the U.S. government's official web portal to all federal, state and local government web resources and services.